Location: Cuguron
(43.0994°N, 0.5363°E)
Time: 19:46:53
(UTC+00:00)

Cosmos 2322 Rocket - Pass Details

Date: 15 May 2026
Orbit: 831 x 850 km, 71.0° (Epoch: 6 June)

Event Time Altitude Azimuth Distance (km) Brightness Sun altitude
Rises 22:18:35 0° 329° (NNW) 3,407 6.8 -24.1°
Reaches altitude 10° 22:21:09 10° 322° (NW) 2,471 5.6 -24.3°
Maximum altitude 22:26:26 42° 253° (WSW) 1,191 2.9 -24.7°
Enters shadow 22:27:37 37° 223° (SW) 1,285 2.9 -24.7°
